Wind_Speed
9 9 9 9 10 10 10 11 12 12 11 12 12 12 12 11 11 10 10 9 9 8 8 8 7 6 5 5 6 6 6 7 8 10 13 15 17 20 23 26 29 32 35 37
10 10 10 10 11 11 11 12 12 11 11 11 11 10 10 9 9 8 7 7 7 7 6 6 6 4 3 1 3 4 6 7 9 11 13 16 19 21 23 26 29 32 35 38
9 9 9 10 10 10 10 10 11 10 10 9 9 9 8 8 8 8 7 6 6 5 4 3 2 1 1 2 4 5 7 10 12 15 17 20 23 25 27 30 32 35 38 41
7 7 7 8 9 9 8 9 9 8 7 7 6 7 7 7 6 6 5 4 3 3 3 3 4 5 6 8 10 12 14 16 18 21 24 26 29 31 33 35 37 39 42 45
6 6 7 7 7 6 6 7 7 7 6 6 6 6 5 5 4 3 2 2 3 4 6 7 9 11 12 14 16 18 20 22 25 27 30 32 35 37 40 42 44 46 48 50
6 5 5 5 5 4 5 4 4 4 4 5 4 3 2 2 1 2 3 4 6 8 10 12 13 16 18 19 21 23 25 27 30 32 35 38 41 43 46 49 51 53 54 55
5 4 4 3 3 2 2 2 2 2 2 1 1 1 2 2 4 5 6 8 10 12 14 16 18 20 22 24 26 28 30 32 35 38 41 43 46 49 52 54 57 59 60 60
5 4 4 3 3 2 2 2 1 1 1 2 3 4 5 6 7 9 10 12 14 16 17 19 21 23 25 27 30 32 35 37 40 43 46 49 52 55 57 60 62 63 64 64
5 4 4 4 4 4 3 3 3 3 4 5 6 7 8 9 10 11 12 14 16 18 21 23 25 27 29 31 33 36 39 42 45 48 51 54 57 60 62 64 65 65 66 66
5 5 5 5 5 5 5 5 5 6 6 6 7 8 9 11 12 13 15 17 20 22 24 26 29 31 33 36 38 41 44 46 49 52 55 58 61 63 65 66 66 66 66 66
7 7 7 7 7 7 7 8 8 8 8 9 10 11 12 14 15 17 19 22 24 26 29 31 33 36 38 41 44 46 49 52 54 57 59 61 63 64 64 64 65 65 64 64
10 10 10 10 10 10 10 10 11 11 11 12 13 14 16 17 19 21 24 26 28 31 33 35 38 41 43 46 49 51 54 56 59 61 62 63 63 62 62 61 61 62 61 61
13 13 12 12 12 13 13 13 14 14 15 16 17 18 19 21 23 25 27 30 32 34 37 39 42 45 48 51 53 56 58 59 61 62 62 62 61 60 58 58 58 58 58 57
16 16 16 15 15 16 16 17 17 17 18 19 20 22 23 25 27 29 31 33 36 38 41 44 46 49 51 54 56 58 60 61 61 61 61 60 59 58 57 55 55 55 56 56
18 18 18 18 19 19 19 19 20 21 22 23 24 25 27 28 31 33 35 37 40 42 45 47 50 52 55 57 58 60 60 60 60 60 60 59 57 56 55 54 53 52 52 52
20 20 21 21 21 21 22 22 23 24 24 26 27 28 30 32 34 36 39 41 43 46 48 51 53 55 57 59 60 60 60 60 59 59 58 57 55 54 53 52 51 50 49 48
22 23 23 23 23 24 25 25 26 26 27 28 30 31 33 35 37 40 42 44 47 49 51 53 55 57 58 60 60 60 59 59 58 58 56 55 53 52 51 50 49 47 46 44
26 26 26 26 26 26 27 28 28 29 30 31 33 34 36 38 40 42 44 47 49 51 53 55 56 58 59 59 59 59 58 58 57 56 55 53 52 50 49 47 45 44 42 40
29 29 29 29 29 29 30 30 31 32 33 34 36 37 39 40 42 44 47 49 50 52 54 56 57 58 58 58 58 58 57 57 56 55 53 51 50 48 46 43 41 39 36 34
31 31 31 31 31 32 32 33 34 35 36 37 38 40 41 43 45 47 48 50 51 53 55 57 57 57 57 57 58 58 57 56 55 52 50 49 47 45 43 40 37 34 32 31
33 33 32 32 33 33 34 35 36 37 38 39 40 41 43 44 46 48 49 51 52 54 56 57 57 57 57 58 58 58 56 55 53 50 48 47 45 42 39 36 33 31 29 27
34 34 34 34 34 35 36 37 37 38 40 41 42 43 44 45 47 48 50 51 53 54 56 56 56 57 57 58 58 57 55 53 51 49 46 44 42 39 35 33 30 28 26 24
34 35 36 36 36 37 37 38 38 39 41 42 43 44 45 46 48 49 51 52 54 55 55 56 56 56 57 58 57 55 53 51 49 47 44 42 38 34 31 29 26 24 22 21
35 35 36 37 37 38 38 39 39 40 41 42 43 44 45 47 48 50 51 53 54 55 55 55 55 56 57 57 56 54 51 49 47 44 41 38 34 31 28 26 23 22 20 19
36 37 37 37 38 38 39 39 40 41 42 43 44 45 46 47 49 50 52 53 54 54 54 55 55 56 56 56 54 51 48 46 43 40 37 33 30 28 25 23 21 19 17 16
37 37 38 38 39 39 39 40 41 42 43 44 45 46 47 48 49 50 52 52 53 54 54 54 55 55 55 54 51 48 45 42 39 36 32 29 26 24 22 20 18 16 15 14
36 37 38 38 39 39 40 40 41 42 43 44 45 46 47 48 49 50 51 51 52 52 52 53 53 53 52 51 48 44 41 38 35 32 28 25 23 21 20 17 15 14 12 11
Wind_Direction
117 116 114 111 110 109 109 114 115 115 115 114 113 113 113 115 114 111 110 113 117 120 118 121 122 123 133 152 167 181 196 212 223 231 238 241 247 250 252 254 256 258 259 260
115 114 114 114 113 112 111 114 116 115 114 113 112 111 112 112 113 109 105 103 106 109 108 105 103 99 101 155 210 224 232 241 248 252 253 255 258 260 261 261 262 264 264 265
115 113 112 114 116 116 114 115 113 113 113 114 112 108 108 107 108 104 99 95 96 94 92 79 72 41 350 301 285 279 275 273 271 270 270 269 268 268 268 268 269 270 270 270
117 119 115 114 115 114 112 111 109 108 109 110 113 113 110 109 107 101 89 79 69 43 21 2 347 330 315 307 299 293 290 286 284 282 281 280 279 278 276 275 275 275 274 273
129 125 124 125 123 119 118 112 107 104 103 104 106 107 108 109 106 93 59 22 348 333 327 320 316 313 308 303 300 297 295 292 290 288 287 286 285 283 282 281 280 280 279 277
140 140 137 135 133 128 123 119 113 105 105 107 108 106 97 82 18 340 331 329 325 320 317 312 309 308 306 303 301 299 297 295 293 291 290 289 288 287 286 285 284 283 281 279
162 159 157 157 159 152 148 137 137 119 108 92 57 31 356 330 323 320 319 318 320 319 318 316 314 312 310 307 305 303 300 298 296 294 292 291 289 288 288 287 286 284 282 281
188 194 200 201 206 205 198 206 224 236 267 295 308 312 313 313 315 317 319 320 321 321 320 318 316 314 312 310 308 306 304 301 298 296 295 293 292 291 289 288 287 286 284 283
205 210 215 222 229 236 242 247 251 261 274 287 296 301 306 310 313 316 319 320 321 320 319 317 315 314 313 311 308 306 305 303 301 299 297 295 294 292 291 289 288 286 285 284
224 228 231 237 242 249 254 256 258 263 274 286 294 300 307 312 315 316 317 318 317 317 317 316 314 313 312 310 309 306 305 304 302 301 300 298 296 294 291 290 289 287 286 284
236 238 240 244 249 253 256 258 262 270 279 286 292 300 306 309 311 313 314 314 315 315 315 314 313 313 312 311 310 308 306 305 303 302 301 300 298 296 294 291 290 288 287 286
245 248 252 255 257 261 264 267 270 275 282 289 294 299 303 306 308 310 311 312 313 313 313 313 312 312 312 311 310 308 307 306 304 303 302 301 300 298 295 293 292 290 289 288
253 255 257 260 263 267 272 276 280 283 286 290 294 297 300 303 305 307 309 310 311 311 312 312 312 312 311 311 310 309 308 306 305 304 304 303 302 300 298 296 295 293 291 289
251 254 258 262 266 270 275 279 283 285 288 290 293 296 299 302 304 306 308 309 310 311 311 312 312 312 312 311 311 310 309 308 307 306 305 304 303 301 300 297 296 294 293 291
254 257 260 264 268 272 275 278 281 285 288 291 293 296 299 301 303 306 307 309 310 311 311 312 312 313 313 313 313 312 311 310 309 308 307 305 303 302 300 299 298 296 294 292
260 261 262 265 269 272 275 278 282 285 289 292 295 297 299 302 304 306 307 308 309 310 311 312 313 314 314 314 314 313 312 311 311 310 308 306 305 303 301 300 299 298 296 294
261 263 264 267 269 272 275 278 282 286 289 292 295 298 300 302 304 306 307 308 310 311 312 313 314 315 315 315 315 314 313 313 312 311 310 308 307 305 303 301 300 299 298 296
261 263 266 269 271 273 276 279 282 286 289 292 295 298 300 302 304 306 307 309 310 311 313 314 315 316 316 316 316 316 315 314 313 312 311 310 309 307 305 303 301 300 298 297
262 263 265 268 271 274 277 279 282 285 289 292 295 298 300 302 304 306 308 310 311 312 314 315 316 317 317 318 318 317 317 316 315 314 313 312 310 309 307 305 302 300 299 297
263 264 265 267 271 274 277 280 283 286 289 292 295 298 300 303 304 306 308 310 312 313 314 316 317 318 318 319 319 319 319 318 317 315 314 313 312 310 308 306 304 301 299 298
264 264 265 268 271 274 277 280 283 286 289 292 295 298 301 303 305 307 309 311 312 314 315 316 317 318 319 320 320 320 320 319 318 317 315 314 313 311 309 307 304 301 299 297
265 265 266 268 271 275 278 281 283 286 289 292 295 298 301 303 305 307 309 311 312 314 316 317 318 319 320 320 320 320 320 320 319 318 317 315 314 312 310 308 305 302 299 296
267 267 268 270 272 275 278 281 283 285 288 292 295 298 301 304 306 308 309 311 313 315 316 317 318 319 320 321 321 321 321 320 320 319 318 317 316 314 312 310 306 302 299 296
268 269 269 271 273 276 279 281 284 286 289 292 295 298 302 304 306 308 310 312 314 315 317 318 319 320 321 321 321 321 321 320 320 320 319 319 317 315 314 311 308 303 298 294
269 269 270 272 274 277 279 282 284 287 290 293 296 299 302 305 307 309 311 313 315 316 317 318 320 321 322 322 322 322 322 322 322 322 321 320 319 318 316 313 309 305 299 293
270 270 271 273 275 278 280 282 284 287 290 293 297 300 303 305 307 310 312 314 316 317 318 319 321 322 322 323 323 323 324 324 325 324 324 323 322 321 320 316 312 307 301 293
271 271 272 273 276 279 281 283 285 288 291 294 297 301 303 306 309 311 313 315 317 318 319 320 322 323 323 324 324 324 325 326 326 326 326 326 325 325 324 320 316 312 306 296
Height
5624 5624 5624 5625 5625 5625 5626 5626 5626 5626 5626 5626 5626 5626 5626 5627 5627 5628 5628 5628 5629 5630 5630 5631 5632 5633 5634 5636 5638 5639 5641 5643 5645 5647 5648 5650 5652 5653 5654 5655 5656 5656 5656 5656
5627 5627 5627 5628 5628 5628 5628 5628 5629 5629 5629 5629 5628 5629 5629 5629 5629 5630 5630 5630 5631 5631 5632 5632 5633 5634 5635 5636 5637 5638 5639 5641 5642 5643 5644 5644 5645 5646 5647 5647 5646 5646 5645 5645
5630 5630 5630 5631 5631 5631 5631 5631 5631 5631 5632 5631 5631 5631 5631 5631 5631 5631 5632 5632 5632 5632 5632 5633 5633 5634 5634 5635 5635 5636 5636 5637 5638 5638 5638 5638 5638 5638 5637 5636 5635 5634 5633 5632
5632 5634 5633 5635 5632 5633 5633 5633 5633 5633 5633 5633 5633 5633 5633 5633 5633 5633 5632 5632 5632 5632 5632 5632 5632 5632 5632 5632 5632 5632 5632 5631 5631 5631 5630 5630 5629 5628 5626 5625 5623 5621 5619 5617
5635 5635 5635 5635 5635 5634 5634 5635 5634 5634 5634 5634 5634 5634 5634 5634 5633 5633 5633 5633 5633 5632 5631 5631 5630 5629 5628 5628 5627 5626 5625 5624 5623 5622 5621 5619 5618 5616 5614 5611 5609 5606 5604 5601
5636 5636 5636 5638 5636 5635 5637 5636 5636 5635 5635 5635 5635 5635 5635 5634 5633 5632 5632 5631 5631 5630 5629 5627 5626 5625 5623 5622 5620 5619 5617 5615 5614 5611 5609 5607 5604 5601 5598 5595 5592 5589 5585 5582
5637 5637 5638 5638 5637 5637 5638 5638 5637 5636 5636 5635 5635 5635 5634 5633 5632 5631 5630 5629 5628 5626 5625 5623 5621 5619 5617 5614 5612 5610 5607 5605 5602 5599 5596 5592 5589 5585 5582 5578 5575 5570 5566 5562
5638 5638 5641 5638 5637 5638 5638 5637 5636 5636 5635 5635 5634 5633 5632 5631 5630 5629 5627 5625 5624 5622 5620 5618 5615 5613 5610 5607 5604 5600 5596 5593 5589 5585 5580 5576 5571 5567 5562 5557 5553 5548 5543 5539
5640 5641 5639 5638 5637 5637 5636 5636 5635 5635 5634 5633 5632 5631 5630 5629 5627 5625 5624 5621 5619 5617 5614 5611 5608 5605 5602 5598 5594 5590 5585 5580 5575 5569 5564 5558 5552 5547 5541 5535 5529 5524 5520 5516
5638 5638 5638 5637 5636 5636 5635 5635 5634 5633 5632 5631 5630 5629 5627 5626 5624 5621 5619 5617 5614 5611 5608 5604 5600 5597 5593 5588 5584 5579 5573 5567 5560 5554 5547 5540 5532 5525 5518 5512 5506 5501 5496 5492
5637 5637 5636 5636 5635 5634 5634 5633 5632 5631 5630 5629 5627 5626 5624 5622 5619 5617 5614 5611 5608 5604 5600 5596 5592 5587 5582 5577 5571 5565 5559 5552 5545 5537 5529 5521 5512 5504 5496 5489 5483 5478 5473 5468
5635 5635 5635 5634 5633 5632 5631 5630 5629 5628 5627 5625 5623 5621 5619 5617 5614 5611 5608 5605 5601 5597 5592 5588 5582 5577 5571 5565 5558 5551 5544 5536 5527 5518 5509 5501 5493 5485 5476 5469 5462 5456 5450 5445
5632 5631 5631 5630 5630 5629 5628 5627 5626 5624 5623 5621 5619 5616 5614 5612 5609 5605 5602 5598 5593 5589 5584 5578 5572 5566 5559 5552 5543 5535 5527 5518 5508 5499 5490 5481 5473 5465 5458 5451 5443 5436 5430 5424
5627 5627 5626 5626 5625 5624 5623 5622 5621 5619 5617 5616 5613 5611 5608 5605 5602 5598 5594 5589 5584 5579 5573 5567 5561 5553 5546 5537 5528 5519 5509 5499 5490 5480 5471 5462 5454 5446 5439 5433 5427 5420 5412 5405
5622 5622 5621 5620 5620 5619 5617 5616 5615 5613 5611 5609 5607 5604 5601 5597 5594 5589 5585 5580 5574 5568 5562 5555 5548 5540 5531 5522 5512 5502 5492 5482 5472 5463 5453 5444 5436 5429 5422 5415 5409 5403 5396 5389
5616 5616 5615 5614 5613 5612 5611 5610 5608 5606 5604 5602 5599 5596 5593 5589 5584 5580 5575 5569 5563 5557 5550 5542 5534 5525 5516 5506 5496 5486 5475 5465 5455 5446 5437 5428 5420 5412 5405 5399 5392 5386 5380 5374
5610 5609 5608 5607 5606 5605 5604 5602 5601 5599 5596 5594 5591 5587 5584 5579 5575 5570 5564 5558 5552 5544 5537 5529 5520 5511 5501 5491 5480 5470 5460 5449 5439 5430 5421 5413 5405 5397 5390 5383 5377 5371 5365 5359
5602 5601 5601 5600 5599 5597 5596 5594 5592 5590 5588 5585 5582 5578 5574 5569 5564 5559 5553 5547 5539 5532 5524 5515 5506 5496 5486 5475 5465 5455 5445 5435 5425 5416 5407 5398 5390 5383 5375 5368 5362 5357 5352 5346
5593 5593 5592 5591 5590 5589 5587 5585 5583 5581 5578 5575 5572 5568 5564 5559 5554 5548 5541 5535 5527 5520 5511 5502 5492 5482 5472 5461 5451 5441 5431 5421 5411 5402 5393 5385 5377 5369 5362 5355 5350 5345 5340 5336
5583 5583 5582 5581 5581 5580 5578 5576 5574 5571 5568 5565 5561 5557 5553 5548 5542 5536 5529 5522 5515 5507 5498 5489 5479 5469 5459 5448 5438 5428 5418 5408 5398 5389 5380 5372 5365 5357 5350 5344 5339 5334 5330 5326
5573 5573 5572 5571 5571 5569 5568 5566 5564 5561 5558 5554 5551 5546 5541 5536 5531 5524 5518 5510 5502 5494 5485 5476 5466 5456 5446 5436 5426 5416 5405 5396 5386 5377 5369 5361 5353 5346 5340 5334 5329 5325 5321 5318
5563 5562 5562 5561 5560 5559 5557 5555 5553 5550 5547 5543 5539 5535 5530 5525 5519 5512 5505 5498 5490 5481 5472 5463 5454 5444 5434 5424 5414 5403 5393 5384 5375 5366 5358 5350 5343 5336 5330 5325 5321 5317 5314 5311
5552 5551 5551 5550 5549 5548 5546 5544 5541 5539 5535 5532 5528 5523 5518 5513 5507 5500 5493 5486 5477 5469 5460 5451 5441 5432 5422 5412 5402 5392 5382 5373 5364 5355 5348 5340 5333 5327 5322 5317 5313 5310 5307 5304
5540 5540 5539 5538 5537 5536 5535 5532 5530 5527 5524 5520 5516 5512 5506 5501 5495 5488 5481 5473 5465 5457 5448 5439 5429 5420 5410 5400 5390 5380 5370 5362 5353 5345 5338 5331 5324 5319 5314 5310 5306 5303 5301 5299
5529 5528 5527 5527 5526 5524 5523 5521 5518 5515 5512 5509 5504 5500 5495 5489 5483 5476 5469 5461 5453 5445 5436 5427 5417 5408 5398 5388 5378 5369 5360 5351 5343 5336 5329 5323 5317 5312 5308 5304 5301 5298 5296 5294
5517 5516 5516 5515 5514 5512 5511 5509 5506 5503 5500 5497 5493 5488 5483 5477 5471 5464 5457 5449 5441 5433 5424 5415 5406 5396 5386 5377 5367 5358 5350 5342 5335 5328 5321 5316 5311 5307 5302 5299 5296 5293 5291 5290
5505 5504 5504 5503 5502 5500 5498 5496 5494 5491 5488 5485 5481 5476 5471 5465 5459 5452 5445 5437 5429 5421 5412 5403 5394 5385 5375 5366 5357 5349 5341 5334 5328 5321 5316 5311 5306 5302 5298 5295 5292 5290 5288 5287